DUBAISAT 1

Satellite information

Favourite Embed

Satellite Type and Status

PAYLOADIN ORBIT

Key statistics

Satellite DUBAISAT 1 at a glance.

Uptime

5929

Days in orbit

Revolutions

≈ 14.7

Per day

Orbit

SSO

Sun Synchronous Orbit

Inclination

98.0

Latest

Satellite identification and parameters

Extended collection of information and parameters for DUBAISAT 1.

Object identification

Identified? True

Debris? False

Object name: DUBAISAT 1

International designator: 2009-041B

Object number (NORAD): 35682

Object ID (CCSDS): 35682

Country: UNITED ARAB EMIRATES (UAE)

Current information (Y/N): Y

RCS size: LARGE

Orbital parameters

Period: 97.668 minutes

Inclination: 97.9746 deg

SMA: 7025.251 km

Apoapsis: 655.353 km

Periapsis: 638.879 km

RAAN: 66.282 deg

Eccentricy: 0.0011725

Argument of periapsis: 114.0622 deg

Mean anomaly: 246.1815 deg

Mean motion: 14.74382031 rev/day

Mean motion (dot): 0.00002455 rev/day2

B* drag term: 0.00037746 1/REarth

Two-line elements (TLE)

Creation date: Oct. 21, 2025, 11:56 p.m.

Reference frame: TEME

Reference center: EARTH

Epoch: Oct. 21, 2025, 7:30 p.m. UTC

TLE line 0: 0 DUBAISAT 1

TLE line 1: 1 35682U 09041B 25294.81292301 .00002455 00000-0 37746-3 0 9992

TLE line 2: 2 35682 97.9746 66.2820 0011725 114.0622 246.1815 14.74382031869962

Live tracking on map

Real-time ground track for satellite DUBAISAT 1.

In-orbit conjunctions

There are no conjunctions computed for DUBAISAT 1, at the moment. Check back to stay up to date, as we update our databases every day.

Go to all conjunctions

Associated space launch

Emirati Earth observation satellite. Launched with 5 secondary payloads.

DUBAISAT 1 was lifted into orbit during the mission ‘Dnepr | DubaiSat 1’, on board a Dnepr space rocket.

The launch took place on July 29, 2009, 6:46 p.m. from 109/95.

For more information about the launch, click the button.

Launch to space Dnepr | DubaiSat 1
Dnepr | DubaiSat 1

Agency: N/A

Status: Launch Successful

Launch date: July 29, 2009, 6:46 p.m. UTC

Rocket: Dnepr

Launch pad: 109/95

Location: Baikonur Cosmodrome, Republic of Kazakhstan

...

Latest news about this satellite

There are no fresh news available about this satellite. Check back as we update our databases every day.


Newsletter sign-up

Weekly statistics, charts and insights to help you stay on top of the space industry.